Regional Weather Roundup
Issued by NWS

Home | Current Version | Previous Version | Graphics & Text | Print | Product List | Glossary On
Versions: 1 2 3 4 5 6 7 8 9 10 11 12 13 14 15 16 17 18 19 20 21 22 23 24 25 26 27 28 29 30 31 32 33 34 35 36 37 38 39 40 41 42 43 44 45 46 47 48 49 50
726
ASUS43 KMKX 241421
RWRWI

WISCONSIN REGIONAL WEATHER ROUNDUP
NATIONAL WEATHER SERVICE MILWAUKEE/SULLIVAN WI
900 AM CDT SUN JUL 24 2016

NOTE: "FAIR" INDICATES FEW OR NO CLOUDS BELOW 12,000 FEET WITH NO
SIGNIFICANT WEATHER AND/OR OBSTRUCTIONS TO VISIBILITY.

WIZ001-002-006>008-014>016-023>028-241500-
NORTHWEST WISCONSIN

CITY           SKY/WX    TMP DP  RH WIND       PRES   REMARKS
SUPERIOR ARPT  MOSUNNY   71  68  90 W6        29.77R
ASHLAND        MOSUNNY   74  67  78 SW12      29.77S
HAYWARD        CLOUDY    70  66  87 SW6       29.81S
SIREN          PTSUNNY   73  70  88 W8        29.82R
CUMBERLAND     MOSUNNY   72  68  88 W7        29.83R
RICE LAKE      CLOUDY    71  67  88 CALM      29.83S
CHETEK         PTSUNNY   73  70  89 CALM      29.82S
LADYSMITH      CLOUDY    71  70  95 W5        29.83S
EAU CLAIRE     CLOUDY    73  72  96 W6        29.80R
MENOMONIE      PTSUNNY   75  74  99 W5        29.82R
NEW RICHMOND   MOSUNNY   76  72  86 W9        29.83R
OSCEOLA        MOSUNNY   76  76  99 W8        29.86R
$$

WIZ003>005-009-010-017-018-241500-
NORTH CENTRAL WISCONSIN

CITY           SKY/WX    TMP DP  RH WIND       PRES   REMARKS
MANITOWISH WTR CLOUDY    72  71  98 SW7       29.81F
ARBOR VITAE    PTSUNNY   72  69  90 SW3       29.82R
WOODRUFF       PTSUNNY   72  69  90 SW3       29.82R
RHINELANDER    CLOUDY    72  69  90 SW8       29.83R
EAGLE RIVER    MOSUNNY   73  69  89 SW8       29.82R
LAND O LAKES   PTSUNNY   72  68  87 W5        29.82F
PHILLIPS       CLOUDY    72  70  96 W3        29.81S
TOMAHAWK       CLOUDY    70  69  96 CALM      29.83R FOG
MEDFORD        FOG       71  71 100 S5        29.81R VSB 1
MERRILL        CLOUDY    72  72 100 S3        29.81S
$$

WIZ029-030-035-036-043>047-241500-
CENTRAL WISCONSIN

CITY           SKY/WX    TMP DP  RH WIND       PRES   REMARKS
WAUSAU         FOG       72  72 100 S7        29.79F VSB 1
MOSINEE        FOG       72  72 100 S3        29.82S VSB 1
MARSHFIELD     FOG       74  71  91 S5        29.80F VSB 1/4
STEVENS POINT  CLOUDY    72  72 100 S5        29.81S FOG
WAUPACA        CLOUDY    75  75  99 S3        29.80F
WAUTOMA        CLOUDY    75  74  96 CALM      29.80F
WISC RAPIDS    CLOUDY    76  73  91 S5        29.81S FOG
CAMP DOUGLAS   CLOUDY    79  77  94 SW6       29.79S HX  83
$$

WIZ011>013-019>022-031-037>040-048>050-241500-
NORTHEAST WISCONSIN

CITY           SKY/WX    TMP DP  RH WIND       PRES   REMARKS
ANTIGO         FOG       70  70 100 CALM      29.83S VSB 3/4
SHAWANO        CLOUDY    74  72  93 S7        29.80F FOG
OCONTO         CLOUDY   N/A N/A N/A S5        29.80S
STURGEON BAY   CLOUDY    73  70  88 S10       29.82F
GREEN BAY      CLOUDY    73  73 100 S6        29.80F
MANITOWOC      TSTM      70  68  94 S20G25    29.86R FOG
APPLETON       PTSUNNY   72  72 100 S6        29.81S
CLINTONVILLE   CLOUDY    72  70  94 S8        29.80F FOG
OSHKOSH        CLOUDY    74  72  93 CALM      29.81F
$$

WIZ032>034-041-042-053>061-241500-
SOUTHWEST WISCONSIN

CITY           SKY/WX    TMP DP  RH WIND       PRES   REMARKS
LA CROSSE      CLOUDY    80  75  84 SW7       29.79R HX  85
SPARTA         CLOUDY    78  75  91 W6        29.81R HX  80
VIROQUA        CLOUDY    78  77  98 W8        29.83R HX  81
BOSCOBEL       SUNNY     85  78  80 SW7       29.81S HX  96
PRAIRIE DU CHI SUNNY     83  76  78 SW8       29.80F HX  91
PLATTEVILLE    SUNNY     82  80  94 SW8       29.85S HX  93
$$

WIZ056-057-062-063-064-067-068-241500-
SOUTH CENTRAL WISCONSIN

CITY           SKY/WX    TMP DP  RH WIND       PRES   REMARKS
REEDSBURG      CLOUDY   N/A N/A N/A SW12      29.80S
BARABOO/DELLS  CLOUDY    79  75  86 SW9       29.82S HX  83
LONE ROCK      MOSUNNY   82  77  84 SW5       29.82S HX  90
MINERAL POINT  CLOUDY    81  79  94 SW8       29.85S HX  89
MADISON        CLOUDY    79  74  84 S9        29.83S HX  82
MIDDLETON      CLOUDY    81  77  85 SW7       29.84S HX  88
WATERTOWN      CLOUDY    79  78  97 S9        29.84F HX  83
MONROE         SUNNY     81  75  83 SW13      29.86S HX  86
JANESVILLE     PTSUNNY   81  79  94 S10       29.85S HX  89
$$

WIZ051-052-058>065-066-070>072-241500-
SOUTHEAST WISCONSIN

CITY           SKY/WX    TMP DP  RH WIND       PRES   REMARKS
MILWAUKEE      CLOUDY    72  69  90 SE8       29.87F
WAUKESHA       NOT AVBL
MILWAUKEE/TIMM LGT RAIN  72  66  83 SE6       29.87F
RACINE         CLOUDY    75  70  84 S9        29.89F
BURLINGTON     CLOUDY    77  74  91 S7        29.87F
KENOSHA        CLOUDY    78  73  84 S13       29.88F HX  81
FOND DU LAC    CLOUDY    79  74  84 S9        29.83S THUNDER HX  82
SHEBOYGAN      LGT RAIN  71  68  90 S13       29.84F
WEST BEND      CLOUDY    70  68  94 S5        29.86F
JUNEAU         CLOUDY    76  74  92 S9        29.85F
$$

LSZ147-162-241500-
LAKE SUPERIOR

STATION/POSITION TIME  TEMP    WIND        PRES    WAVE
                       AIR SEA DIR/SP/G            HT/PER
                 (UTC) (F)     (DEG/KT/KT) (MB)    (FT/S)
W MID LAKE BUOY  1350   62 57  210/  8/  8 1005.7F   1/ 4
DEVILS ISLAND    1400   63     250/  9/ 10 1007.2R
PORT WING        1340   65     270/  9/ 11 1008.1R
SAXON HARBOR     1300   73     200/  6/ 10 1007.5S
$$

LMZ867-665-643>646-241500-
LAKE MICHIGAN

STATION/POSITION TIME  TEMP    WIND        PRES    WAVE
                       AIR SEA DIR/SP/G            HT/PER
                 (UTC) (F)     (DEG/KT/KT) (MB)    (FT/S)
CHAMBERS ISLAND  1300   73     170/  3/  7 1009.5F
S GREEN BAY BUOY 1400   74 74  180/ 14/ 17   N/A
N MID LAKE BUOY  1350   69 69  190/ 16/ 17 1008.9F   2/ 5
NORTHPORT PIER   1300   71     160/  4/  9 1009.8F
KEWAUNEE LAKESHO 1300   60     170/  4/  7 1010.1F
SHEBOYGAN LAKESH 1400   63     180/ 16/ 16 1010.4F
PORT WASHINGTON  1300   64     190/  9/ 11 1012.5S
MILWAUKEE LAKESH 1310   62     120/ 11/ 12   N/A
S MID LAKE BUOY  1350   72 72  100/ 14/ 17 1012.6F   2/ 4
KENOSHA   LAKESH 1400   65     180/ 18/ 20 1011.5F
$$

TC  - TEMPERATURE IN CELSIUS
VSB - VISIBILITY IN STATUTE MILES
WCI - WIND CHILL INDEX
HX  - HEAT INDEX





USA.gov is the U.S. government's official web portal to all federal, state and local government web resources and services.